Location: Macksville High School
(37.9611°N, 99.9654°W)
Time: 18:16:01
(UTC+00:00)

COSMOS 2455 - Pass Details

Date: 27 February 2020
Orbit: 901 x 908 km, 67.2° (Epoch: 03 April)

Event Time Altitude Azimuth Distance (km) Brightness Sun altitude
Rises 12:24:16 0° 335° (NNW) 3,541 5.7 -10.8°
Reaches altitude 10° 12:26:49 10° 338° (NNW) 2,597 5.0 -10.3°
Maximum altitude 12:32:49 66° 60° (ENE) 986 3.3 -9.1°
Drops below altitude 10° 12:38:46 10° 143° (SE) 2,584 5.9 -7.9°
Sets 12:41:17 0° 146° (SE) 3,521 6.5 -7.4°
